Regional Weather Roundup
Issued by NWS Jackson, KY

Home | Current Version | Previous Version | Graphics & Text | Print | Product List | Glossary On
Versions: 1 2 3 4 5 6 7 8 9 10 11 12 13 14 15 16 17 18 19 20 21 22 23 24 25 26 27
000
ASUS43 KJKL 262310
RWRJKL

EAST KENTUCKY HOURLY WEATHER ROUNDUP
NATIONAL WEATHER SERVICE JACKSON KY
700 PM EDT FRI MAY 26 2017

NOTE: "FAIR" INDICATES FEW OR NO CLOUDS BELOW 12,000 FEET WITH
NO SIGNIFICANT WEATHER AND/OR OBSTRUCTIONS TO VISIBILITY.

* THESE REPORTS ARE NOT UNDER NWS QUALITY CONTROL AND MAY NOT
  REPORT WEATHER SUCH AS PRECIPITATION AND FOG.

KYZ079-080-083-085-087-088-110-112-115-119-120-270000
...EASTERN KENTUCKY...

CITY           SKY/WX    TMP DP  RH WIND       PRES   REMARKS
JACKSON        SUNNY     77  58  51 VRB3      29.94S
LONDON         SUNNY     77  58  51 S7        29.93F
SOMERSET*      MOSUNNY   77  59  53 S3        29.92S
MONTICELLO*    MOSUNNY   79  63  57 W16       29.92S
WILLIAMSBURG*  CLEAR     77  61  57 S8        29.93S
MIDDLESBORO*   SUNNY     76  59  55 S5        29.95S
HARLAN APT*    CLEAR     75  54  46 CALM      29.96S
PIKE CO APT*     N/A     74  54  49 SW3       29.96R
BIG SANDY APT* CLEAR     76  55  47 W6        29.94S
MOREHEAD APT*  MOCLDY    75  57  53 SW7       29.94R
$$

KYZ035-036-041-042-044-050-067-078-099-270000
...CENTRAL KENTUCKY...

CITY           SKY/WX    TMP DP  RH WIND       PRES   REMARKS
MT STERLING*   SUNNY     77  61  57 SW6       29.92S
FLEMING/MASON* PTSUNNY   76  60  56 S7        29.91F
DANVILLE*      SUNNY     77  61  57 SW9       29.91S
LEXINGTON      SUNNY     78  62  57 S10       29.89F
FRANKFORT      SUNNY     79  61  53 S9        29.86S
LOUISVILLE     MOSUNNY   82  60  47 S13G22    29.83S
LEBANON*         N/A     77  63  61 S8        29.88S
GLASGOW*       SUNNY     82  62  51 SW9       29.86F
BOWLING GREEN  SUNNY     84  60  44 SW15      29.84F
$$

KYZ091>093-OHZ055-061-077-WVZ005-015-034-035-042-270000
...SOUTHERN OHIO/WEST VIRGINIA...

CITY           SKY/WX    TMP DP  RH WIND       PRES   REMARKS
COVINGTON      MOSUNNY   76  61  59 S9        29.86F
COLUMBUS       MOSUNNY   74  55  51 SW12      29.87F
DAYTON         MOSUNNY   75  55  49 S9        29.87F
WILMINGTON     SUNNY     75  58  55 SW14      29.88S
HUNTINGTON     SUNNY     77  55  46 SW7       29.91R
CHARLESTON     MOSUNNY   74  53  48 SW9       29.91S
PINEVILLE*     SUNNY     72  56  57 MISG      30.01S
BECKLEY        MOSUNNY   69  50  50 W7        29.98R
BLUEFIELD      SUNNY     68  49  50 NW9       30.00R
LOGAN CO APT*    N/A     73  55  53 CALM      29.95S
$$

VAZ002-007-008-TNZ017-027-036-066-071-270000
...SOUTHWEST VIRGINIA/EAST TENNESSEE...

CITY           SKY/WX    TMP DP  RH WIND       PRES   REMARKS
WISE*          SUNNY     72  50  46 CALM      30.02S
JONESVILLE*      N/A     77  57  50 W7        29.98S
ABINGDON*      SUNNY     73  53  48 W9        30.00R
BRISTOL        MOSUNNY   74  54  49 SW6       29.97S
MORRISTOWN*    PTCLDY    77  59  53 W6        29.96S
SEVIERVILLE*   CLEAR     79  57  47 W5        29.94R
KNOXVILLE      PTSUNNY   78  59  51 SW9       29.94R
LAFOLLETTE*    CLEAR     77  63  61 S6        29.96F
OAK RIDGE      MOSUNNY   78  59  51 S5        29.95S
CROSSVILLE     SUNNY     76  60  57 VRB5      29.96S
NASHVILLE      MOSUNNY   85  56  37 SW13G22   29.86F
$$

...KEY TO REMARKS...
VSB - VISIBILITY IN MILES
WCI - WIND CHILL INDEX
HX  - HEAT INDEX

$$




USA.gov is the U.S. government's official web portal to all federal, state and local government web resources and services.